This demonstration page uses our WeatherBlox Daily Observations layout. Learn more.

Left ArrowRight Arrow

39.95238, -75.16362

Hourly Observations for June 4, 2022

Temp ( °F °C ) Dew Point ( °F °C ) Humidity (%) Winds ( mph kmh ) Pressure ( in mb ) Visibility ( mi km ) Precip ( " mm )
12:54 am 00:54 Mostly Clear 68 20 50 10 53 53 Calm 29.86 1011 10 16 0.00 0.00
1:54 am 01:54 Mostly Clear 67 19.4 51 10.6 57 57 Calm 29.87 1012 10 16 0.00 0.00
2:54 am 02:54 Clear 66 18.9 51 10.6 59 59 N 5 7 29.87 1012 10 16 0.00 0.00
3:54 am 03:54 Clear 65 18.3 51 10.6 61 61 NNW 6 9 29.87 1012 10 16 0.00 0.00
4:54 am 04:54 Partly Cloudy 64 17.8 51 10.6 63 63 Calm 29.87 1012 10 16 0.00 0.00
5:54 am 05:54 Mostly Sunny 64 17.8 51 10.6 63 63 NNW 3 6 29.89 1012 10 16 0.00 0.00
6:54 am 06:54 Mostly Sunny 66 18.9 51 10.6 59 59 NW 3 6 29.89 1012 10 16 0.00 0.00
7:54 am 07:54 Mostly Sunny 69 20.6 53 11.7 57 57 Calm 29.91 1013 10 16 0.00 0.00
8:54 am 08:54 Mostly Sunny 74 23.3 55 12.8 52 52 Calm 29.91 1013 10 16 0.00 0.00
9:54 am 09:54 Mostly Sunny 76 24.4 52 11.1 43 43 Calm 29.91 1013 10 16 0.00 0.00
10:54 am 10:54 Mostly Sunny 79 26.1 48 8.9 34 34 SW 10 17 29.91 1013 10 16 0.00 0.00
11:54 am 11:54 Mostly Sunny 81 27.2 50 10 34 34 SW 9 15 29.90 1013 10 16 0.00 0.00
12:54 pm 12:54 Mostly Sunny 82 27.8 46 7.8 28 28 W 13 20 29.89 1012 10 16 0.00 0.00
1:54 pm 13:54 Partly Cloudy 83 28.3 42 5.6 24 24 WNW 10 17 29.87 1012 10 16 0.00 0.00
2:54 pm 14:54 Partly Cloudy 85 29.4 46 7.8 26 26 W 12 19 29.86 1011 10 16 0.00 0.00
3:54 pm 15:54 Partly Cloudy 85 29.4 46 7.8 26 26 W 12 19 29.85 1011 10 16 0.00 0.00
4:54 pm 16:54 Partly Cloudy 85 29.4 38 3.3 19 19 NW 9 15 29.85 1011 10 16 0.00 0.00
5:54 pm 17:54 Partly Cloudy 85 29.4 39 3.9 20 20 NW 16 26 29.85 1011 10 16 0.00 0.00
6:54 pm 18:54 Partly Cloudy 83 28.3 39 3.9 21 21 W 13 20 29.85 1011 10 16 0.00 0.00
7:54 pm 19:54 Mostly Sunny 82 27.8 39 3.9 22 22 WNW 8 13 29.85 1011 10 16 0.00 0.00
8:54 pm 20:54 Mostly Clear 80 26.7 41 5 25 25 NW 8 13 29.86 1011 10 16 0.00 0.00
9:54 pm 21:54 Mostly Clear 75 23.9 44 6.7 33 33 NNW 7 11 29.87 1011 10 16 0.00 0.00
10:54 pm 22:54 Mostly Clear 74 23.3 43 6.1 33 33 NNW 5 7 29.88 1012 10 16 0.00 0.00
11:54 pm 23:54 Mostly Clear 70 21.1 53 11.7 55 55 Calm 29.90 1012 10 16 0.00 0.00

Powered by AerisWeather